Weather History for Flint, MI

Change the Weather History Date:

Monday, March 31, 2014

  Actual Average Record
Temperature  
Mean Temperature 44 °F 40 °F  
Max Temperature 61 °F 50 °F 77 °F (1943)
Min Temperature 27 °F 30 °F 0 °F (1923)
Degree Days  
Heating Degree Days 21 25  
Month to date heating degree days 1204 956  
Since 1 July heating degree days 6725 6045  
Cooling Degree Days 0 0  
Month to date cooling degree days 0 0  
Year to date cooling degree days 0 0  
Moisture  
Dew Point 26 °F    
Average Humidity 54    
Maximum Humidity 78    
Minimum Humidity 29    
Precipitation  
Precipitation 0.00 in 0.08 in 1.41 in (1949)
Month to date precipitation 1.21 1.91  
Year to date precipitation 5.22 5.02  
Snow  
Snow 0.00 in 0.10 in 2.00 in (2011)
Month to date snowfall 9.4 6.5  
Since 1 July snowfall 82.6 45.1  
Snow Depth T in    
Sea Level Pressure  
Sea Level Pressure 30.12 in    
Wind  
Wind Speed 10 mph (SSE)    
Max Wind Speed 23 mph    
Max Gust Speed 30 mph    
Visibility 10 miles    
Events      
T = Trace of Precipitation, MM = Missing Value Source: NWS Daily Summary

Daily Weather History Graph

Daily Weather History Graph

Search for Another Location

Airport:

Trip Planner

Search our weather history database for the weather conditions in past years. The results will help you decide how hot, cold, wet, or windy it might be!

Date:

Astronomy

Mar. 31, 2014 Rise Set
Actual Time 7:18 AM EDT 8:00 PM EDT
Civil Twilight 6:50 AM EDT 8:28 PM EDT
Nautical Twilight 6:16 AM EDT 9:02 PM EDT
Astronomical Twilight 5:41 AM EDT 9:37 PM EDT
Moon 7:40 AM EDT (3/31) 9:20 PM EDT (3/31)
Length of Visible Light 13h 38m
Length of Day
12h 41m
New Moon, 1% of the Moon is Illuminated
Mar 31
New Moon
Apr 7
First Quarter
Apr 15
Full
Apr 22
Last Quarter
Apr 29
New

Hourly Weather History & Observations

Time (EDT) Temp. Windchill Dew Point Humidity Pressure Visibility Wind Dir Wind Speed Gust Speed Precip Events Conditions
12:53 AM 32.0 °F - 23.0 °F 69% 30.16 in 10.0 mi Calm Calm - N/A   Clear
1:53 AM 30.0 °F - 23.0 °F 75% 30.16 in 10.0 mi Calm Calm - N/A   Clear
2:53 AM 30.0 °F 25.2 °F 21.9 °F 72% 30.17 in 10.0 mi South 4.6 mph - N/A   Clear
3:53 AM 30.0 °F - 23.0 °F 75% 30.17 in 10.0 mi Calm Calm - N/A   Clear
4:53 AM 28.9 °F - 21.9 °F 75% 30.17 in 10.0 mi Calm Calm - N/A   Clear
5:53 AM 28.0 °F 24.2 °F 23.0 °F 81% 30.19 in 10.0 mi SE 3.5 mph - N/A   Clear
6:53 AM 32.0 °F 27.5 °F 21.9 °F 66% 30.18 in 10.0 mi South 4.6 mph - N/A   Clear
7:53 AM 32.0 °F 28.7 °F 21.9 °F 66% 30.20 in 10.0 mi South 3.5 mph - N/A   Clear
8:53 AM 37.9 °F 33.5 °F 27.0 °F 65% 30.21 in 10.0 mi SSE 5.8 mph - N/A   Clear
9:53 AM 46.0 °F 41.4 °F 26.1 °F 46% 30.20 in 10.0 mi SSE 9.2 mph - N/A   Clear
10:53 AM 52.0 °F - 28.9 °F 41% 30.19 in 10.0 mi SSE 10.4 mph - N/A   Clear
11:53 AM 55.0 °F - 30.0 °F 38% 30.18 in 10.0 mi SSE 10.4 mph - N/A   Clear
12:53 PM 57.0 °F - 30.0 °F 36% 30.16 in 10.0 mi SSE 12.7 mph - N/A   Clear
1:53 PM 57.9 °F - 28.9 °F 33% 30.14 in 10.0 mi SSE 15.0 mph - N/A   Clear
2:53 PM 60.1 °F - 30.0 °F 32% 30.13 in 10.0 mi South 13.8 mph - N/A   Clear
3:53 PM 60.1 °F - 28.0 °F 30% 30.12 in 10.0 mi South 13.8 mph - N/A   Clear
4:53 PM 60.1 °F - 28.9 °F 31% 30.09 in 10.0 mi SSE 16.1 mph - N/A   Clear
5:53 PM 57.0 °F - 26.1 °F 30% 30.08 in 10.0 mi SE 17.3 mph - N/A   Clear
6:53 PM 55.0 °F - 28.9 °F 37% 30.05 in 10.0 mi SE 9.2 mph - N/A   Clear
7:53 PM 52.0 °F - 28.9 °F 41% 30.02 in 10.0 mi SE 10.4 mph - N/A   Clear
8:53 PM 50.0 °F - 28.0 °F 43% 30.01 in 10.0 mi SE 16.1 mph - N/A   Clear
9:53 PM 48.0 °F - 26.1 °F 42% 30.01 in 10.0 mi SE 16.1 mph - N/A   Clear
10:53 PM 48.0 °F - 23.0 °F 37% 29.99 in 10.0 mi SE 15.0 mph - N/A   Clear
11:53 PM 48.0 °F - 23.0 °F 37% 29.97 in 10.0 mi SSE 15.0 mph 23.0 mph N/A   Clear